Tacoma Narrows, WA
on Tuesday, February 12, 2013

Tuesday
Previous Day Next Day
Daily Summary
 ActualAverageRecord
Temperature
Mean Temperature °F / °C °F / °C  
Max Temperature 50°F / 10°C 46°F / 7°C 55°F / 12°C (2004)
Min Temperature 44°F / 7°C 36°F / 2°C 32°F / 0°C (2004)
Degree Days
Heating Degree Days 18    
Moisture
Dew Point 43°F / 6°C   
Average Humidity 87    
Maximum Humidity 93    
Minimum Humidity 74    
Precipitation
Precipitation 0.01 in / 0.25 cm in / cm in / cm ()
Wind
Wind Speed 8 mph / 13 km/h   
Max Wind Speed 17 mph / 27 km/h   
Max Gust Speed 25 mph / 40 km/h   
Visibility 9 miles / 15 kilometers   
Events     
Averages and records for this station are not official NWS values.
Key: T is trace of precipitation, MM is missing value
Source: NWS Daily Summary
Seasonal Weather Averages
Time(PST)TemperatureDew PointHumidity Pressure Visibility Wind DirectionWind SpeedGust SpeedPrecipitationEvents Conditions
12:29 AM 44.6°F / 7.0°C 42.8°F / 6.0°C 93% 30.36 in / 1028.0 hPa 9.0 miles / 14.5 kilometers SSW 4.6 mph / 7.4 km/h - N/A   Overcast
12:53 AM 45.0°F / 7.2°C 42.1°F / 5.6°C 90% 30.36 in / 1028.0 hPa 7.0 miles / 11.3 kilometers SW 4.6 mph / 7.4 km/h - N/A   Overcast
1:45 AM 44.6°F / 7.0°C 42.8°F / 6.0°C 93% 30.35 in / 1027.7 hPa 9.0 miles / 14.5 kilometers South 6.9 mph / 11.1 km/h - 0.01 in / 0.3 cm   Overcast
1:53 AM 44.1°F / 6.7°C 42.1°F / 5.6°C 93% 30.36 in / 1028.0 hPa 8.0 miles / 12.9 kilometers South 9.2 mph / 14.8 km/h - 0.01 in / 0.3 cm   Overcast
2:17 AM 44.6°F / 7.0°C 42.8°F / 6.0°C 93% 30.35 in / 1027.7 hPa 5.0 miles / 8.0 kilometers South 8.1 mph / 13.0 km/h - N/A   Overcast
2:31 AM 44.6°F / 7.0°C 42.8°F / 6.0°C 93% 30.35 in / 1027.7 hPa 4.0 miles / 6.4 kilometers South 8.1 mph / 13.0 km/h - N/A   Overcast
2:42 AM 44.6°F / 7.0°C 42.8°F / 6.0°C 93% 30.36 in / 1028.0 hPa 4.0 miles / 6.4 kilometers South 9.2 mph / 14.8 km/h - N/A   Overcast
2:53 AM 44.1°F / 6.7°C 42.1°F / 5.6°C 93% 30.36 in / 1028.1 hPa 9.0 miles / 14.5 kilometers South 6.9 mph / 11.1 km/h - N/A   Overcast
3:15 AM 44.6°F / 7.0°C 42.8°F / 6.0°C 93% 30.35 in / 1027.7 hPa 10.0 miles / 16.1 kilometers South 6.9 mph / 11.1 km/h - N/A   Overcast
3:23 AM 44.6°F / 7.0°C 42.8°F / 6.0°C 93% 30.35 in / 1027.7 hPa 10.0 miles / 16.1 kilometers South 6.9 mph / 11.1 km/h - N/A   Overcast
3:53 AM 45.0°F / 7.2°C 42.1°F / 5.6°C 90% 30.36 in / 1028.1 hPa 10.0 miles / 16.1 kilometers South 6.9 mph / 11.1 km/h - N/A   Overcast
4:53 AM 44.1°F / 6.7°C 42.1°F / 5.6°C 93% 30.37 in / 1028.3 hPa 10.0 miles / 16.1 kilometers South 6.9 mph / 11.1 km/h - N/A   Overcast
5:07 AM 44.6°F / 7.0°C 42.8°F / 6.0°C 93% 30.36 in / 1028.0 hPa 6.0 miles / 9.7 kilometers South 6.9 mph / 11.1 km/h - N/A   Overcast
5:53 AM 45.0°F / 7.2°C 42.1°F / 5.6°C 90% 30.36 in / 1028.1 hPa 10.0 miles / 16.1 kilometers South 6.9 mph / 11.1 km/h - N/A   Overcast
6:42 AM 44.6°F / 7.0°C 42.8°F / 6.0°C 93% 30.37 in / 1028.3 hPa 10.0 miles / 16.1 kilometers South 6.9 mph / 11.1 km/h - N/A   Overcast
6:53 AM 45.0°F / 7.2°C 42.1°F / 5.6°C 90% 30.37 in / 1028.3 hPa 10.0 miles / 16.1 kilometers South 9.2 mph / 14.8 km/h - N/A   Overcast
7:53 AM 45.0°F / 7.2°C 42.1°F / 5.6°C 90% 30.39 in / 1028.9 hPa 10.0 miles / 16.1 kilometers South 9.2 mph / 14.8 km/h - N/A   Overcast
8:53 AM 45.0°F / 7.2°C 42.1°F / 5.6°C 90% 30.40 in / 1029.2 hPa 10.0 miles / 16.1 kilometers South 6.9 mph / 11.1 km/h - N/A   Overcast
9:53 AM 46.0°F / 7.8°C 42.1°F / 5.6°C 86% 30.39 in / 1029.1 hPa 10.0 miles / 16.1 kilometers South 11.5 mph / 18.5 km/h - N/A   Overcast
10:53 AM 46.9°F / 8.3°C 43.0°F / 6.1°C 86% 30.40 in / 1029.4 hPa 10.0 miles / 16.1 kilometers South 12.7 mph / 20.4 km/h 19.6 mph / 31.5 km/h N/A   Overcast
11:53 AM 46.9°F / 8.3°C 43.0°F / 6.1°C 86% 30.40 in / 1029.3 hPa 10.0 miles / 16.1 kilometers South 10.4 mph / 16.7 km/h - N/A   Overcast
11:54 AM 46.4°F / 8.0°C 42.8°F / 6.0°C 87% 30.39 in / 1029.0 hPa 10.0 miles / 16.1 kilometers South 10.4 mph / 16.7 km/h - N/A   Overcast
12:53 PM 48.0°F / 8.9°C 44.1°F / 6.7°C 86% 30.39 in / 1028.9 hPa 10.0 miles / 16.1 kilometers SSW 11.5 mph / 18.5 km/h - N/A   Overcast
1:53 PM 48.9°F / 9.4°C 44.1°F / 6.7°C 83% 30.38 in / 1028.5 hPa 10.0 miles / 16.1 kilometers SSW 11.5 mph / 18.5 km/h 19.6 mph / 31.5 km/h N/A   Mostly Cloudy
2:53 PM 50.0°F / 10.0°C 44.1°F / 6.7°C 80% 30.35 in / 1027.6 hPa 10.0 miles / 16.1 kilometers SSW 11.5 mph / 18.5 km/h 19.6 mph / 31.5 km/h N/A   Mostly Cloudy
3:00 PM 50.0°F / 10.0°C 42.8°F / 6.0°C 76% 30.34 in / 1027.3 hPa 10.0 miles / 16.1 kilometers South 12.7 mph / 20.4 km/h 19.6 mph / 31.5 km/h N/A   Mostly Cloudy
3:53 PM 50.0°F / 10.0°C 42.1°F / 5.6°C 74% 30.37 in / 1028.3 hPa 10.0 miles / 16.1 kilometers SSW 12.7 mph / 20.4 km/h - N/A   Mostly Cloudy
4:53 PM 48.9°F / 9.4°C 42.1°F / 5.6°C 77% 30.36 in / 1027.9 hPa 10.0 miles / 16.1 kilometers SSW 11.5 mph / 18.5 km/h 20.7 mph / 33.3 km/h N/A   Overcast
5:53 PM 48.9°F / 9.4°C 43.0°F / 6.1°C 80% 30.36 in / 1028.1 hPa 10.0 miles / 16.1 kilometers SSW 11.5 mph / 18.5 km/h - N/A   Overcast
6:53 PM 48.0°F / 8.9°C 43.0°F / 6.1°C 83% 30.35 in / 1027.5 hPa 10.0 miles / 16.1 kilometers SSW 13.8 mph / 22.2 km/h 24.2 mph / 38.9 km/h N/A   Overcast
7:00 PM 48.2°F / 9.0°C 42.8°F / 6.0°C 82% 30.34 in / 1027.3 hPa 10.0 miles / 16.1 kilometers SW 13.8 mph / 22.2 km/h 24.2 mph / 38.9 km/h N/A   Overcast
7:53 PM 48.0°F / 8.9°C 43.0°F / 6.1°C 83% 30.32 in / 1026.8 hPa 10.0 miles / 16.1 kilometers SSW 13.8 mph / 22.2 km/h 21.9 mph / 35.2 km/h N/A   Mostly Cloudy
8:43 PM 46.4°F / 8.0°C 42.8°F / 6.0°C 87% 30.33 in / 1027.0 hPa 10.0 miles / 16.1 kilometers SSW 11.5 mph / 18.5 km/h 20.7 mph / 33.3 km/h N/A   Mostly Cloudy
8:53 PM 48.0°F / 8.9°C 43.0°F / 6.1°C 83% 30.34 in / 1027.2 hPa 10.0 miles / 16.1 kilometers SSW 10.4 mph / 16.7 km/h 20.7 mph / 33.3 km/h N/A   Overcast
9:10 PM 46.4°F / 8.0°C 42.8°F / 6.0°C 87% 30.32 in / 1026.6 hPa 10.0 miles / 16.1 kilometers SSW 9.2 mph / 14.8 km/h 19.6 mph / 31.5 km/h N/A   Overcast
9:53 PM 46.9°F / 8.3°C 43.0°F / 6.1°C 86% 30.34 in / 1027.2 hPa 10.0 miles / 16.1 kilometers SSW 8.1 mph / 13.0 km/h 18.4 mph / 29.6 km/h N/A   Mostly Cloudy
10:18 PM 46.4°F / 8.0°C 42.8°F / 6.0°C 87% 30.32 in / 1026.6 hPa 10.0 miles / 16.1 kilometers SW 11.5 mph / 18.5 km/h 21.9 mph / 35.2 km/h N/A   Scattered Clouds
10:53 PM 46.9°F / 8.3°C 43.0°F / 6.1°C 86% 30.33 in / 1027.1 hPa 10.0 miles / 16.1 kilometers SSW 12.7 mph / 20.4 km/h 21.9 mph / 35.2 km/h N/A   Scattered Clouds
11:53 PM 46.9°F / 8.3°C 42.1°F / 5.6°C 83% 30.33 in / 1026.9 hPa 10.0 miles / 16.1 kilometers SSW 17.3 mph / 27.8 km/h 25.3 mph / 40.7 km/h N/A   Partly Cloudy
Moon Phase
Feb. 12 Feb. 17 Feb. 25 Mar. 04 Mar. 11
Sunrise:07:19 AM (PST) Moon Rise:08:05 AM (PST)2/12
Sunset:05:30 PM (PST) Moon Set:08:53 PM (PST)2/12

Copyright © 2014 The Weather Underground, Inc.